• Em Portugal
  • Lista de países
  • Para 7 dias
  • Temperatura da água
  • Mapas de satélite
  • Mapa do tempo
  • Widgets de tempo
  • user-avatar
    Iniciar Sessão

    Previsão horária em Serove

    Hoje, 25 Fevereiro, Domingo

    Tempo Temperatura Precipitação Vento Pressão Humidade
    00:00 +21°C° 0,1 mm 2 m/s 664 mmHg 88%
    01:00 +22°C° 0,1 mm 1 m/s 663 mmHg 89%
    02:00 +21°C° 0 mm 1 m/s 663 mmHg 90%
    03:00 +21°C° 0,4 mm 1 m/s 663 mmHg 90%
    04:00 +21°C° 0,4 mm 1 m/s 663 mmHg 90%
    05:00 +21°C° 0,4 mm 1 m/s 663 mmHg 91%
    06:00 +21°C° 0,7 mm 1 m/s 664 mmHg 90%
    07:00 +21°C° 0,7 mm 1 m/s 664 mmHg 89%
    08:00 +22°C° 0,7 mm 1 m/s 664 mmHg 88%
    09:00 +22°C° 1 mm 1 m/s 664 mmHg 85%
    10:00 +23°C° 1 mm 1 m/s 665 mmHg 82%
    11:00 +24°C° 1 mm 1 m/s 665 mmHg 79%
    12:00 +24°C° 0,4 mm 1 m/s 665 mmHg 76%
    13:00 +25°C° 0,4 mm 1 m/s 664 mmHg 72%
    14:00 +24°C° 0,4 mm 0 m/s 664 mmHg 68%
    15:00 +26°C° 0,1 mm 1 m/s 664 mmHg 69%
    16:00 +26°C° 0,1 mm 1 m/s 663 mmHg 70%
    17:00 +26°C° 0,1 mm 1 m/s 663 mmHg 71%
    18:00 +25°C° 0,3 mm 2 m/s 663 mmHg 75%
    19:00 +24°C° 0,3 mm 2 m/s 663 mmHg 79%
    20:00 +23°C° 0,3 mm 2 m/s 663 mmHg 84%
    21:00 +21°C° 0,1 mm 2 m/s 664 mmHg 84%
    22:00 +21°C° 0,1 mm 2 m/s 664 mmHg 85%
    23:00 +21°C° 0,1 mm 2 m/s 664 mmHg 85%

    Amanhã, 26 Fevereiro, Segunda-feira

    Tempo Temperatura Precipitação Vento Pressão Humidade
    00:00 +21°C° 0,1 mm 3 m/s 664 mmHg 86%
    01:00 +20°C° 0,1 mm 4 m/s 664 mmHg 87%
    02:00 +20°C° 0,1 mm 5 m/s 664 mmHg 88%
    03:00 +20°C° 0,2 mm 5 m/s 664 mmHg 89%
    04:00 +20°C° 0,2 mm 6 m/s 664 mmHg 89%
    05:00 +20°C° 0,2 mm 7 m/s 665 mmHg 89%
    06:00 +18°C° 0,1 mm 7 m/s 665 mmHg 88%
    07:00 +18°C° 0,1 mm 7 m/s 666 mmHg 87%
    08:00 +17°C° 0,1 mm 7 m/s 666 mmHg 86%
    09:00 +18°C° 0,1 mm 7 m/s 666 mmHg 84%
    10:00 +18°C° 0,1 mm 7 m/s 667 mmHg 83%
    11:00 +18°C° 0,1 mm 7 m/s 667 mmHg 81%
    12:00 +18°C° 0,1 mm 7 m/s 667 mmHg 80%
    13:00 +19°C° 0,1 mm 6 m/s 666 mmHg 80%
    14:00 +19°C° 0,1 mm 6 m/s 666 mmHg 80%
    15:00 +19°C° 0,3 mm 6 m/s 666 mmHg 82%
    16:00 +19°C° 0,3 mm 6 m/s 665 mmHg 83%
    17:00 +17°C° 0,3 mm 5 m/s 665 mmHg 85%
    18:00 +17°C° 0,2 mm 5 m/s 666 mmHg 86%
    19:00 +17°C° 0,2 mm 5 m/s 666 mmHg 88%
    20:00 +16°C° 0,2 mm 5 m/s 666 mmHg 89%
    21:00 +16°C° 0,2 mm 5 m/s 667 mmHg 89%
    22:00 +16°C° 0,2 mm 5 m/s 667 mmHg 90%
    23:00 +16°C° 0,2 mm 5 m/s 667 mmHg 90%

    Depois de amanhã, 27 Fevereiro, Terça-feira

    Tempo Temperatura Precipitação Vento Pressão Humidade
    00:00 +16°C° 0,3 mm 5 m/s 667 mmHg 90%
    01:00 +16°C° 0,3 mm 5 m/s 666 mmHg 90%
    02:00 +16°C° 0,3 mm 5 m/s 666 mmHg 91%
    03:00 +16°C° 0,6 mm 5 m/s 666 mmHg 91%
    04:00 +16°C° 0,6 mm 5 m/s 666 mmHg 91%
    05:00 +16°C° 0,6 mm 5 m/s 666 mmHg 92%
    06:00 +16°C° 0,8 mm 5 m/s 666 mmHg 91%
    07:00 +16°C° 0,8 mm 5 m/s 666 mmHg 91%
    08:00 +16°C° 0,8 mm 5 m/s 667 mmHg 91%
    09:00 +16°C° 0,4 mm 5 m/s 667 mmHg 90%
    10:00 +16°C° 0,4 mm 5 m/s 667 mmHg 89%
    11:00 +17°C° 0,4 mm 5 m/s 667 mmHg 88%
    12:00 +18°C° 0,4 mm 4 m/s 667 mmHg 87%
    13:00 +18°C° 0,4 mm 4 m/s 666 mmHg 86%
    14:00 +19°C° 0,4 mm 4 m/s 666 mmHg 85%
    15:00 +19°C° 0,2 mm 4 m/s 666 mmHg 85%
    16:00 +19°C° 0,2 mm 3 m/s 666 mmHg 85%
    17:00 +19°C° 0,2 mm 3 m/s 665 mmHg 85%
    18:00 +19°C° 0 mm 2 m/s 665 mmHg 87%
    19:00 +18°C° 0 mm 2 m/s 666 mmHg 89%
    20:00 +18°C° 0 mm 2 m/s 666 mmHg 91%
    21:00 +18°C° 0 mm 2 m/s 666 mmHg 91%
    22:00 +18°C° 0 mm 2 m/s 666 mmHg 92%
    23:00 +17°C° 0 mm 2 m/s 666 mmHg 93%

    28 Fevereiro, Quarta-feira

    Tempo Temperatura Precipitação Vento Pressão Humidade
    00:00 +17°C° 0 mm 2 m/s 666 mmHg 93%
    01:00 +17°C° 0 mm 2 m/s 665 mmHg 93%
    02:00 +17°C° 0 mm 2 m/s 665 mmHg 94%
    03:00 +17°C° 0 mm 2 m/s 665 mmHg 94%
    04:00 +17°C° 0 mm 2 m/s 665 mmHg 94%
    05:00 +17°C° 0 mm 2 m/s 665 mmHg 94%
    06:00 +18°C° 0 mm 2 m/s 665 mmHg 91%
    07:00 +19°C° 0 mm 3 m/s 666 mmHg 87%
    08:00 +20°C° 0 mm 3 m/s 667 mmHg 84%
    09:00 +20°C° 0 mm 4 m/s 667 mmHg 80%
    10:00 +21°C° 0 mm 4 m/s 667 mmHg 77%
    11:00 +22°C° 0 mm 4 m/s 667 mmHg 74%
    12:00 +23°C° 0,1 mm 4 m/s 667 mmHg 71%
    13:00 +25°C° 0,1 mm 4 m/s 666 mmHg 68%
    14:00 +26°C° 0,1 mm 4 m/s 666 mmHg 65%
    15:00 +26°C° 0,4 mm 4 m/s 665 mmHg 66%
    16:00 +26°C° 0,4 mm 4 m/s 665 mmHg 67%
    17:00 +26°C° 0,4 mm 4 m/s 665 mmHg 68%
    18:00 +25°C° 0,4 mm 3 m/s 665 mmHg 73%
    19:00 +22°C° 0,4 mm 3 m/s 665 mmHg 79%
    20:00 +21°C° 0,4 mm 2 m/s 665 mmHg 85%
    21:00 +21°C° 0,5 mm 2 m/s 665 mmHg 86%
    22:00 +21°C° 0,5 mm 2 m/s 666 mmHg 87%
    23:00 +21°C° 0,5 mm 2 m/s 666 mmHg 88%

    1 Março, Quinta-feira

    Tempo Temperatura Precipitação Vento Pressão Humidade
    00:00 +21°C° 0,8 mm 2 m/s 665 mmHg 89%
    01:00 +20°C° 0,8 mm 3 m/s 665 mmHg 90%
    02:00 +20°C° 0,8 mm 3 m/s 665 mmHg 91%
    03:00 +20°C° 0,9 mm 3 m/s 665 mmHg 92%
    04:00 +20°C° 0,9 mm 3 m/s 665 mmHg 92%
    05:00 +20°C° 0,9 mm 3 m/s 665 mmHg 93%
    06:00 +20°C° 1,4 mm 4 m/s 665 mmHg 93%
    07:00 +20°C° 1,4 mm 4 m/s 665 mmHg 92%
    08:00 +20°C° 1,4 mm 5 m/s 666 mmHg 92%
    09:00 +20°C° 1,9 mm 5 m/s 666 mmHg 92%
    10:00 +20°C° 1,9 mm 5 m/s 666 mmHg 91%
    11:00 +20°C° 1,9 mm 6 m/s 666 mmHg 90%
    12:00 +20°C° 1,4 mm 5 m/s 666 mmHg 89%
    13:00 +20°C° 1,4 mm 5 m/s 665 mmHg 87%
    14:00 +21°C° 1,4 mm 5 m/s 665 mmHg 85%
    15:00 +21°C° 0,7 mm 5 m/s 665 mmHg 85%
    16:00 +21°C° 0,7 mm 4 m/s 664 mmHg 85%
    17:00 +20°C° 0,7 mm 4 m/s 664 mmHg 84%
    18:00 +20°C° 0,6 mm 4 m/s 664 mmHg 85%
    19:00 +20°C° 0,6 mm 3 m/s 664 mmHg 86%
    20:00 +19°C° 0,6 mm 3 m/s 665 mmHg 87%
    21:00 +19°C° 2 mm 3 m/s 665 mmHg 88%
    22:00 +19°C° 2 mm 3 m/s 665 mmHg 89%
    23:00 +19°C° 2 mm 3 m/s 665 mmHg 90%

    2 Março, Sexta-feira

    Tempo Temperatura Precipitação Vento Pressão Humidade
    00:00 +19°C° 2,2 mm 3 m/s 665 mmHg 90%
    01:00 +19°C° 2,2 mm 3 m/s 664 mmHg 91%
    02:00 +19°C° 2,2 mm 3 m/s 664 mmHg 92%
    03:00 +19°C° 1,9 mm 4 m/s 664 mmHg 92%
    04:00 +18°C° 1,9 mm 4 m/s 664 mmHg 92%
    05:00 +17°C° 1,9 mm 5 m/s 665 mmHg 91%
    06:00 +17°C° 1,5 mm 5 m/s 665 mmHg 90%
    07:00 +17°C° 1,5 mm 5 m/s 665 mmHg 90%
    08:00 +17°C° 1,5 mm 5 m/s 666 mmHg 89%
    09:00 +16°C° 2,4 mm 5 m/s 666 mmHg 89%
    10:00 +16°C° 2,4 mm 5 m/s 666 mmHg 88%
    11:00 +16°C° 2,4 mm 5 m/s 666 mmHg 87%
    12:00 +16°C° 1,8 mm 5 m/s 666 mmHg 87%
    13:00 +16°C° 1,8 mm 5 m/s 665 mmHg 86%
    14:00 +16°C° 1,8 mm 5 m/s 665 mmHg 86%
    15:00 +16°C° 0,6 mm 5 m/s 665 mmHg 86%
    16:00 +16°C° 0,6 mm 5 m/s 664 mmHg 85%
    17:00 +17°C° 0,6 mm 4 m/s 664 mmHg 85%
    18:00 +17°C° 0,3 mm 4 m/s 664 mmHg 87%
    19:00 +17°C° 0,3 mm 4 m/s 664 mmHg 90%
    20:00 +16°C° 0,3 mm 3 m/s 665 mmHg 92%
    21:00 +16°C° 0,1 mm 3 m/s 665 mmHg 92%
    22:00 +16°C° 0,1 mm 3 m/s 665 mmHg 92%
    23:00 +16°C° 0,1 mm 3 m/s 665 mmHg 93%
    Mostrar mais